Regional Weather Roundup
Issued by NWS

Home | Current Version | Previous Version | Graphics & Text | Print | Product List | Glossary On
Versions: 1 2 3 4 5 6 7 8 9 10 11 12 13 14 15 16 17 18 19 20 21 22 23 24 25 26 27 28 29 30 31 32 33 34 35 36 37 38 39 40 41 42 43 44 45 46 47 48 49 50
000
ASUS43 KTOP 301908
RWRKS

WEATHER ROUNDUP FOR KANSAS
NATIONAL WEATHER SERVICE GOODLAND KS
200 PM CDT TUE AUG 30 2016

NOTE:  "FAIR" INDICATES FEW OR NO CLOUDS BELOW 12,000 FEET WITH NO
SIGNIFICANT WEATHER AND/OR OBSTRUCTIONS TO VISIBILITY.

KSZ001>006-013>018-027>032-041>047-302000-
NORTHWEST KANSAS

CITY           SKY/WX    TMP DP  RH WIND       PRES   REMARKS
GOODLAND       CLOUDY    74  61  63 SE7       30.26F
HAYS           CLOUDY    77  63  61 CALM      30.20F
HILL CITY      CLOUDY    78  66  66 E5        30.22F
RUSSELL        LGT RAIN  77  70  79 NW7       30.18F
$$

KSZ061>065-074>080-084>089-302000-
SOUTHWEST KANSAS

CITY           SKY/WX    TMP DP  RH WIND       PRES   REMARKS
DODGE CITY     CLOUDY    79  68  69 CALM      30.21F
ELKHART          N/A     70  62  76 S3          N/A
GARDEN CITY    MOSUNNY   74  65  73 SE3       30.23F
GREAT BEND     MOSUNNY   81  64  57 N3        30.17F
LIBERAL        CLOUDY    72  64  78 CALM      30.25F
PRATT          HAZE      75  69  81 W7        30.18S VSB 1
$$

KSZ066>073-081>083-090>101-302000-
SOUTHEAST KANSAS

CITY           SKY/WX    TMP DP  RH WIND       PRES   REMARKS
CHANUTE        MOSUNNY   90  72  55 VRB3      30.12F HX  97
COFFEYVILLE    MOSUNNY   92  73  53 VRB3      30.09F HX 100
HUTCHINSON     MOSUNNY   88  68  51 N5        30.14F
MEDICINE LODGE   N/A     84  68  58 E3        30.14F
NEWTON         PTSUNNY   84  72  67 N5        30.15F
PARSONS        SUNNY     90  70  51 VRB3      30.12F HX  95
WICHITA INTL   MOSUNNY   88  68  51 CALM      30.12F
WICHITA JABRA  MOSUNNY   87  71  58 E3        30.13F
WICHITA MCCONL SUNNY     88  70  54 SW6       30.12F
WINFIELD       SUNNY     88  72  58 E7        30.13F
$$

KSZ007>012-019>026-033>040-048>060-102>105-302000-
NORTHEAST KANSAS

CITY           SKY/WX    TMP DP  RH WIND       PRES   REMARKS
CONCORDIA      CLOUDY    81  69  67 E5        30.17F
EMPORIA        MOSUNNY   86  72  62 N5        30.13F
LAWRENCE       CLOUDY    85  73  67 CALM      30.13F
MANHATTAN      CLOUDY    84  73  69 E8        30.14F
MARYSVILLE     CLOUDY    81  72  74 E6        30.17F
OLATHE IND     CLOUDY    84  72  67 VRB5      30.15F
OLATHE EXE     CLOUDY    83  72  69 VRB6      30.14F
SALINA         MOSUNNY   86  72  62 VRB5      30.14F
TOPEKA BILLARD MOSUNNY   84  73  69 N7        30.14F
TOPEKA FORBES  MOSUNNY   87  73  62 N10       30.14F
$$




USA.gov is the U.S. government's official web portal to all federal, state and local government web resources and services.